SCP
-0 -0 -0 -0 -0 -0 -0 -0 -0 -0 -0 -0 -0 -0 -0 -0 -0 -0 -0 0 0 0 0 0 0 0 0 0 0 0 0 0 0 0 0 0 -0 0 0 0 0 0 0
-0 0 -0 -0 -0 -0 -0 -0 -0 -0 -0 -0 -0 -0 -0 -0 0 0 0 0 0 0 0 0 0 0 0 0 0 0 0 0 0 0 0 0 0 -0 0 0 0 0 0
-0 0 -0 -0 -0 -0 -0 -0 -0 -0 -0 -0 -0 -0 0 0 0 0 0 0 0 0 0 0 0 0 0 0 0 0 -0 -0 0 0 0 0 0 0 0 0 0 0 0
-0 -0 -0 -0 -0 -0 -0 -0 -0 -0 -0 -0 -0 0 0 0 0 0 0 0 0 0 0 -0 -0 -0 -0 -0 -0 -0 -0 0 0 0 0 0 0 0 0 0 0 0 0
-0 -0 -0 -0 -0 -0 -0 -0 -0 -0 -0 -0 0 0 0 0 0 0 0 0 0 -0 -0 -0 -0 -0 -0 -0 0 0 0 0 0 0 0 0 0 0 0 0 0 1 1
-0 -0 -0 -0 -0 -0 -0 -0 -0 -0 -0 0 0 0 0 0 0 0 0 0 -0 -0 -0 -0 -0 -0 0 0 0 0 0 0 0 0 0 0 0 0 0 0 0 1 1
-0 -0 -0 -0 -0 -0 -0 -0 -0 -0 -0 0 0 0 0 0 0 0 0 0 -0 -0 -0 -0 0 0 0 0 0 0 0 0 0 0 0 0 0 0 0 1 0 0 1
-0 -0 -0 -0 -0 -0 -0 -0 -0 -0 -0 -0 0 0 0 0 0 0 0 -0 -0 -0 0 0 0 0 0 0 0 0 0 0 0 0 0 0 0 0 0 0 1 1 1
-0 -0 -0 -0 -0 -0 -0 -0 -0 -0 -0 0 0 0 0 0 0 -0 -0 -0 -0 0 0 0 0 0 0 0 0 0 0 0 0 0 0 0 0 0 0 0 0 1 2
0 0 -0 -0 -0 -0 -0 -0 -0 -0 0 0 0 0 0 0 -0 -0 -0 0 0 0 1 0 0 0 0 0 0 0 0 0 0 0 0 0 0 0 0 0 0 0 1
0 0 -0 -0 -0 -0 -0 0 -0 -0 0 0 0 0 0 0 0 0 0 0 0 0 0 0 0 0 0 0 0 0 0 0 0 0 0 0 0 0 0 0 0 0 0
-0 -0 -0 -0 -0 -0 0 0 0 0 0 0 0 0 0 0 0 0 0 0 0 0 0 0 0 0 0 0 0 0 0 0 0 0 0 0 0 0 0 0 0 0 0
-0 -0 -0 -0 0 0 0 0 0 0 0 0 0 0 0 0 0 0 0 0 0 0 0 0 0 0 0 0 0 0 0 0 0 0 0 0 0 0 0 0 0 0 0
-0 -0 -0 -0 -0 0 0 0 0 0 0 0 0 0 0 0 0 0 0 0 0 0 0 0 0 0 0 0 0 0 0 0 0 0 0 0 0 0 0 0 0 0 0
-0 -0 -0 0 -0 0 -0 -0 0 0 0 0 0 0 0 0 0 0 0 0 0 0 0 0 0 0 0 0 0 0 0 0 0 0 0 0 0 0 0 0 0 0 0
-0 0 0 0 -0 0 0 0 -0 -0 0 0 0 0 0 0 0 0 0 0 0 0 0 0 0 0 0 0 0 0 0 0 0 0 0 0 0 0 0 0 0 0 0
-0 0 0 0 0 0 0 0 0 0 0 0 0 0 0 0 0 0 0 0 0 0 0 0 0 0 0 0 0 0 0 0 0 0 0 0 0 0 0 0 0 0 0
0 0 0 0 0 0 0 0 0 0 0 0 0 0 0 0 0 0 0 0 0 0 0 0 0 0 0 0 0 0 0 0 0 0 0 0 0 0 0 0 0 0 0
-0 0 0 0 0 0 0 0 0 0 0 0 0 0 0 0 0 0 0 0 0 0 0 0 0 0 0 0 0 0 0 0 0 0 0 0 0 0 0 0 0 0 0
0 0 0 0 0 0 0 0 0 0 0 0 0 0 0 0 0 0 0 0 0 0 0 0 0 0 0 0 0 0 0 0 0 0 0 0 0 0 0 0 0 0 0
0 0 0 0 0 0 0 0 0 0 0 0 0 0 0 0 0 0 0 0 0 0 0 0 0 0 0 0 0 0 0 0 0 0 0 0 0 0 0 0 0 0 0
0 0 0 0 0 0 0 0 0 0 0 0 0 0 0 0 0 0 0 0 0 0 0 0 0 0 0 0 0 0 0 0 0 0 0 0 0 0 0 0 0 0 0
0 0 0 0 0 0 0 0 0 0 0 0 0 0 0 0 0 0 0 0 0 0 0 0 0 0 0 0 0 0 0 0 0 0 0 0 0 0 0 0 0 0 0
0 0 0 0 0 0 0 0 0 0 0 0 0 0 0 0 0 0 0 0 0 0 0 0 0 0 0 0 0 0 0 0 0 0 0 0 0 0 0 0 0 0 0
0 0 0 0 0 0 0 0 0 0 0 0 0 0 0 0 0 0 0 0 0 0 0 0 0 0 0 0 0 0 0 0 0 0 0 0 0 0 0 0 0 0 0
0 0 0 0 0 0 0 0 0 0 0 0 0 0 0 0 0 0 0 0 0 0 0 0 0 0 0 0 0 0 0 0 0 0 0 0 0 0 0 0 0 0 0
Wind_Speed_500mb
46 49 47 43 38 34 29 27 26 26 26 26 25 24 22 20 18 17 16 17 17 18 18 18 19 19 19 19 18 18 17 17 17 15 16 17 17 13 11 13 14 12 13
48 51 50 45 40 36 32 29 27 27 25 23 21 20 18 17 17 17 16 16 16 17 17 17 19 20 23 24 24 22 20 19 18 16 14 15 13 14 15 18 20 14 13
43 49 50 45 41 37 33 31 28 26 24 21 19 18 16 16 15 14 14 14 15 15 18 23 26 25 23 21 19 17 15 15 14 13 13 17 17 18 19 20 20 19 18
41 46 49 45 41 37 32 30 27 24 22 19 17 15 14 13 12 12 11 12 14 21 24 24 22 20 17 14 13 12 12 12 13 11 16 22 24 24 26 27 25 23 22
44 44 46 43 39 36 32 29 27 24 21 18 15 13 12 11 10 10 11 17 20 21 20 18 16 14 13 12 12 12 11 11 12 14 23 26 26 24 24 26 30 29 26
40 42 44 42 39 36 34 30 28 25 21 18 15 13 11 10 9 10 17 20 19 17 13 11 10 8 7 6 5 8 12 17 19 22 29 32 31 31 33 33 29 28 31
39 40 41 40 38 36 35 31 27 24 21 17 14 13 11 9 12 17 19 18 15 10 6 4 2 1 6 8 11 16 20 23 28 32 39 43 45 48 47 43 40 36 35
34 34 34 34 34 34 32 28 25 22 19 16 15 14 12 14 17 19 18 15 10 5 1 1 4 9 15 18 21 25 29 32 36 41 47 51 51 55 58 59 55 48 40
29 28 30 31 32 31 29 27 25 23 20 17 16 15 15 16 18 18 14 11 8 6 7 11 15 20 25 28 31 34 36 40 46 52 59 60 54 53 55 51 49 50 48
33 32 34 32 31 31 30 28 26 22 20 19 18 18 17 18 18 17 14 12 12 16 19 22 26 30 32 36 39 42 46 51 56 63 65 62 56 52 53 55 56 53 55
34 32 31 31 29 29 29 28 25 23 22 20 19 18 18 20 20 22 19 19 21 23 27 32 34 38 41 42 46 51 56 61 66 71 72 67 64 62 59 56 54 51 47
37 35 34 33 31 31 31 29 26 25 23 22 21 20 20 22 26 26 26 26 27 32 35 38 42 45 46 50 56 61 65 69 73 77 78 74 73 69 66 60 55 51 54
38 38 37 36 32 31 31 29 26 25 24 24 26 25 25 26 26 28 32 34 35 38 40 44 47 51 55 59 61 64 68 73 78 78 76 74 70 66 56 50 44 41 40
47 34 33 36 35 32 32 31 27 26 26 26 28 28 26 26 27 30 33 35 36 37 41 46 51 54 57 60 65 70 74 73 72 69 65 63 58 54 44 33 31 30 32
46 40 37 39 37 37 38 34 30 25 27 29 30 32 29 29 30 33 33 35 38 42 44 49 54 60 65 66 64 65 65 65 65 62 60 54 47 40 37 33 33 36 37
52 46 44 42 41 41 40 37 33 32 32 34 32 32 32 33 32 31 34 35 35 41 51 59 62 58 57 55 56 60 60 60 56 53 45 38 33 32 32 35 39 40 41
60 40 47 46 46 44 47 39 35 32 36 37 37 36 35 37 33 33 32 32 42 54 57 54 51 53 54 54 53 53 52 51 42 34 30 26 25 25 28 31 34 38 41
62 54 47 50 52 50 45 45 40 39 41 42 41 39 38 36 33 31 30 42 52 50 47 49 49 50 55 52 49 45 41 37 26 19 15 21 21 21 26 30 33 35 36
57 60 59 55 56 54 49 47 44 42 42 43 42 40 38 36 34 32 42 45 44 48 49 51 49 52 54 52 47 42 35 26 21 9 18 23 23 26 29 28 30 33 33
70 71 68 64 59 57 53 49 49 48 46 43 40 35 35 34 34 43 43 47 46 45 50 47 48 49 52 46 44 42 39 18 28 21 33 28 22 27 26 27 28 29 31
64 59 64 64 59 60 56 51 52 48 44 38 35 33 31 34 43 40 43 45 41 45 46 48 48 48 47 45 49 53 42 33 22 25 37 37 26 33 28 28 32 33 33
43 40 49 51 51 53 46 45 39 34 36 39 39 36 38 40 35 40 39 40 41 43 46 47 47 48 46 40 46 43 30 33 3 37 33 40 25 41 40 35 39 43 41
40 32 32 36 43 44 43 40 35 31 36 38 32 35 35 32 34 36 39 41 42 44 43 45 48 48 44 40 32 28 20 17 66 13 52 22 40 44 46 44 45 48 52
35 31 29 34 42 46 43 39 31 31 29 29 28 23 27 28 33 35 37 39 40 40 44 47 45 39 36 38 36 32 29 37 46 56 39 62 53 48 48 42 46 50 52
30 27 24 27 35 38 36 31 25 24 19 16 17 21 25 30 32 34 36 37 40 44 43 40 37 35 31 35 41 46 44 46 45 49 71 65 69 60 46 44 43 51 50
34 28 23 24 28 28 27 25 20 15 12 14 18 22 27 31 35 38 37 41 41 40 40 38 36 35 35 39 41 43 48 55 58 48 59 70 66 63 52 46 45 52 55
Wind_Direction_500mb
165 161 156 155 153 155 162 158 147 142 140 139 135 131 125 122 118 113 109 103 97 91 86 82 78 74 69 63 59 56 52 49 40 37 37 31 16 351 321 316 325 320 342
165 163 161 160 159 159 165 162 157 152 149 143 138 135 133 129 126 121 112 102 96 93 88 83 78 74 74 74 72 66 62 55 49 50 32 11 2 351 310 304 308 276 285
169 166 165 165 166 164 168 170 166 159 155 151 150 147 143 137 127 116 106 99 95 88 87 90 92 90 87 82 73 61 50 40 28 22 11 350 335 313 306 295 288 280 267
178 171 171 170 170 170 173 175 173 169 166 163 161 156 146 134 125 114 104 95 92 97 98 99 98 93 83 71 55 37 22 14 6 6 355 339 325 311 299 290 285 274 266
178 171 173 172 174 177 180 181 181 180 177 174 169 160 149 139 127 110 102 104 105 104 104 102 93 77 58 41 39 33 29 19 5 337 326 321 315 306 305 298 282 275 262
171 170 173 176 181 184 188 188 188 188 186 182 174 165 159 145 132 124 118 117 116 115 111 99 78 63 33 16 1 352 342 337 333 330 327 321 306 295 297 297 294 279 268
169 171 175 180 185 189 192 193 193 192 190 186 178 175 169 160 148 137 133 134 131 131 116 84 68 293 303 308 306 313 317 316 319 320 322 321 312 301 293 293 289 285 273
171 170 176 183 188 191 194 197 197 195 194 190 189 187 180 170 156 152 152 147 142 137 157 267 273 263 275 290 302 303 306 306 309 314 314 312 306 298 294 292 287 281 277
174 178 185 190 190 194 198 199 199 198 198 195 199 199 189 174 169 167 160 162 168 193 245 263 270 278 282 285 294 299 301 300 304 310 313 312 306 299 295 293 286 278 277
183 187 192 195 199 200 199 200 201 200 201 205 205 201 190 186 183 177 179 187 209 234 249 264 274 280 285 288 292 296 300 305 306 309 311 312 307 298 288 284 283 280 274
193 199 200 201 201 204 206 204 202 203 207 210 210 207 202 197 193 196 203 219 234 250 262 270 282 290 291 293 297 301 302 303 304 307 308 308 304 299 293 286 275 268 265
198 198 200 201 201 205 208 207 206 210 211 210 212 212 211 208 210 217 230 246 258 266 272 281 288 293 294 297 299 300 301 303 304 305 305 304 301 296 293 289 283 273 267
208 205 201 198 200 205 209 210 212 212 212 212 214 214 214 223 233 242 252 262 274 283 285 288 293 295 295 296 299 302 303 302 302 301 300 299 297 297 292 288 287 281 270
211 211 210 198 199 205 208 213 209 211 216 216 218 222 227 237 249 260 270 275 282 290 294 296 296 297 299 302 304 303 302 303 303 302 302 302 300 296 295 290 277 270 268
214 211 210 202 201 208 208 207 206 214 223 223 224 228 237 249 261 269 276 282 289 295 300 302 302 302 302 304 306 307 307 306 305 303 303 303 302 298 291 284 276 262 252
212 217 215 213 211 208 209 209 215 221 223 225 228 229 240 251 262 272 279 284 294 302 305 305 304 305 306 308 310 311 310 308 308 308 308 308 306 301 295 287 283 279 265
218 219 224 222 220 219 215 217 222 229 228 230 233 236 245 255 263 272 279 291 300 303 305 308 310 311 311 313 315 312 309 310 314 314 318 318 311 304 299 295 292 289 284
230 230 227 227 225 223 223 224 230 230 230 236 241 249 254 256 263 268 285 296 301 308 313 314 315 318 319 319 319 317 320 323 317 332 336 342 332 327 321 314 310 306 301
244 246 238 231 231 228 228 229 235 240 237 244 248 252 253 255 262 275 287 297 308 317 316 315 318 321 320 324 323 320 321 322 315 3 354 337 329 320 317 322 321 318 316
244 247 237 232 233 232 231 237 238 240 244 247 246 245 251 260 271 286 298 306 309 314 311 315 320 323 327 330 327 324 325 322 313 250 353 336 336 332 325 327 324 321 322
243 241 228 228 232 235 233 237 238 244 237 235 238 242 249 271 284 293 302 305 306 307 314 319 326 330 333 336 338 335 343 337 309 253 298 314 298 326 331 328 337 326 316
231 221 220 223 230 233 229 230 230 228 231 239 245 260 269 271 285 299 301 301 309 315 318 325 331 336 336 343 346 349 342 343 287 308 296 320 308 328 329 322 327 326 321
204 197 200 216 223 219 217 222 219 230 246 242 258 258 263 289 295 301 308 312 313 316 322 327 329 332 334 340 341 341 333 317 323 324 320 326 306 313 324 317 323 324 321
178 179 195 210 216 219 221 224 239 259 253 250 251 268 283 293 304 311 311 312 315 318 319 321 324 330 331 338 334 323 308 304 314 313 306 311 321 308 315 314 323 325 327
180 187 191 199 207 214 225 242 255 266 253 251 266 277 292 304 314 316 314 316 315 315 316 322 325 330 328 323 324 322 311 308 306 299 302 310 308 313 321 316 320 326 330
181 184 194 208 213 216 229 239 234 235 246 269 286 296 309 312 314 317 317 319 318 321 323 326 328 329 321 312 308 302 303 305 305 303 301 303 305 315 311 315 318 325 331
Wind_Speed_850mb
46 49 47 43 38 34 29 27 26 26 26 26 25 24 22 20 18 17 16 17 17 18 18 18 19 19 19 19 18 18 17 17 17 15 16 17 17 13 11 13 14 12 13
48 51 50 45 40 36 32 29 27 27 25 23 21 20 18 17 17 17 16 16 16 17 17 17 19 20 23 24 24 22 20 19 18 16 14 15 13 14 15 18 20 14 13
43 49 50 45 41 37 33 31 28 26 24 21 19 18 16 16 15 14 14 14 15 15 18 23 26 25 23 21 19 17 15 15 14 13 13 17 17 18 19 20 20 19 18
41 46 49 45 41 37 32 30 27 24 22 19 17 15 14 13 12 12 11 12 14 21 24 24 22 20 17 14 13 12 12 12 13 11 16 22 24 24 26 27 25 23 22
44 44 46 43 39 36 32 29 27 24 21 18 15 13 12 11 10 10 11 17 20 21 20 18 16 14 13 12 12 12 11 11 12 14 23 26 26 24 24 26 30 29 26
40 42 44 42 39 36 34 30 28 25 21 18 15 13 11 10 9 10 17 20 19 17 13 11 10 8 7 6 5 8 12 17 19 22 29 32 31 31 33 33 29 28 31
39 40 41 40 38 36 35 31 27 24 21 17 14 13 11 9 12 17 19 18 15 10 6 4 2 1 6 8 11 16 20 23 28 32 39 43 45 48 47 43 40 36 35
34 34 34 34 34 34 32 28 25 22 19 16 15 14 12 14 17 19 18 15 10 5 1 1 4 9 15 18 21 25 29 32 36 41 47 51 51 55 58 59 55 48 40
29 28 30 31 32 31 29 27 25 23 20 17 16 15 15 16 18 18 14 11 8 6 7 11 15 20 25 28 31 34 36 40 46 52 59 60 54 53 55 51 49 50 48
33 32 34 32 31 31 30 28 26 22 20 19 18 18 17 18 18 17 14 12 12 16 19 22 26 30 32 36 39 42 46 51 56 63 65 62 56 52 53 55 56 53 55
34 32 31 31 29 29 29 28 25 23 22 20 19 18 18 20 20 22 19 19 21 23 27 32 34 38 41 42 46 51 56 61 66 71 72 67 64 62 59 56 54 51 47
37 35 34 33 31 31 31 29 26 25 23 22 21 20 20 22 26 26 26 26 27 32 35 38 42 45 46 50 56 61 65 69 73 77 78 74 73 69 66 60 55 51 54
38 38 37 36 32 31 31 29 26 25 24 24 26 25 25 26 26 28 32 34 35 38 40 44 47 51 55 59 61 64 68 73 78 78 76 74 70 66 56 50 44 41 40
47 34 33 36 35 32 32 31 27 26 26 26 28 28 26 26 27 30 33 35 36 37 41 46 51 54 57 60 65 70 74 73 72 69 65 63 58 54 44 33 31 30 32
46 40 37 39 37 37 38 34 30 25 27 29 30 32 29 29 30 33 33 35 38 42 44 49 54 60 65 66 64 65 65 65 65 62 60 54 47 40 37 33 33 36 37
52 46 44 42 41 41 40 37 33 32 32 34 32 32 32 33 32 31 34 35 35 41 51 59 62 58 57 55 56 60 60 60 56 53 45 38 33 32 32 35 39 40 41
60 40 47 46 46 44 47 39 35 32 36 37 37 36 35 37 33 33 32 32 42 54 57 54 51 53 54 54 53 53 52 51 42 34 30 26 25 25 28 31 34 38 41
62 54 47 50 52 50 45 45 40 39 41 42 41 39 38 36 33 31 30 42 52 50 47 49 49 50 55 52 49 45 41 37 26 19 15 21 21 21 26 30 33 35 36
57 60 59 55 56 54 49 47 44 42 42 43 42 40 38 36 34 32 42 45 44 48 49 51 49 52 54 52 47 42 35 26 21 9 18 23 23 26 29 28 30 33 33
70 71 68 64 59 57 53 49 49 48 46 43 40 35 35 34 34 43 43 47 46 45 50 47 48 49 52 46 44 42 39 18 28 21 33 28 22 27 26 27 28 29 31
64 59 64 64 59 60 56 51 52 48 44 38 35 33 31 34 43 40 43 45 41 45 46 48 48 48 47 45 49 53 42 33 22 25 37 37 26 33 28 28 32 33 33
43 40 49 51 51 53 46 45 39 34 36 39 39 36 38 40 35 40 39 40 41 43 46 47 47 48 46 40 46 43 30 33 3 37 33 40 25 41 40 35 39 43 41
40 32 32 36 43 44 43 40 35 31 36 38 32 35 35 32 34 36 39 41 42 44 43 45 48 48 44 40 32 28 20 17 66 13 52 22 40 44 46 44 45 48 52
35 31 29 34 42 46 43 39 31 31 29 29 28 23 27 28 33 35 37 39 40 40 44 47 45 39 36 38 36 32 29 37 46 56 39 62 53 48 48 42 46 50 52
30 27 24 27 35 38 36 31 25 24 19 16 17 21 25 30 32 34 36 37 40 44 43 40 37 35 31 35 41 46 44 46 45 49 71 65 69 60 46 44 43 51 50
34 28 23 24 28 28 27 25 20 15 12 14 18 22 27 31 35 38 37 41 41 40 40 38 36 35 35 39 41 43 48 55 58 48 59 70 66 63 52 46 45 52 55
Wind_Direction_850mb
165 161 156 155 153 155 162 158 147 142 140 139 135 131 125 122 118 113 109 103 97 91 86 82 78 74 69 63 59 56 52 49 40 37 37 31 16 351 321 316 325 320 342
165 163 161 160 159 159 165 162 157 152 149 143 138 135 133 129 126 121 112 102 96 93 88 83 78 74 74 74 72 66 62 55 49 50 32 11 2 351 310 304 308 276 285
169 166 165 165 166 164 168 170 166 159 155 151 150 147 143 137 127 116 106 99 95 88 87 90 92 90 87 82 73 61 50 40 28 22 11 350 335 313 306 295 288 280 267
178 171 171 170 170 170 173 175 173 169 166 163 161 156 146 134 125 114 104 95 92 97 98 99 98 93 83 71 55 37 22 14 6 6 355 339 325 311 299 290 285 274 266
178 171 173 172 174 177 180 181 181 180 177 174 169 160 149 139 127 110 102 104 105 104 104 102 93 77 58 41 39 33 29 19 5 337 326 321 315 306 305 298 282 275 262
171 170 173 176 181 184 188 188 188 188 186 182 174 165 159 145 132 124 118 117 116 115 111 99 78 63 33 16 1 352 342 337 333 330 327 321 306 295 297 297 294 279 268
169 171 175 180 185 189 192 193 193 192 190 186 178 175 169 160 148 137 133 134 131 131 116 84 68 293 303 308 306 313 317 316 319 320 322 321 312 301 293 293 289 285 273
171 170 176 183 188 191 194 197 197 195 194 190 189 187 180 170 156 152 152 147 142 137 157 267 273 263 275 290 302 303 306 306 309 314 314 312 306 298 294 292 287 281 277
174 178 185 190 190 194 198 199 199 198 198 195 199 199 189 174 169 167 160 162 168 193 245 263 270 278 282 285 294 299 301 300 304 310 313 312 306 299 295 293 286 278 277
183 187 192 195 199 200 199 200 201 200 201 205 205 201 190 186 183 177 179 187 209 234 249 264 274 280 285 288 292 296 300 305 306 309 311 312 307 298 288 284 283 280 274
193 199 200 201 201 204 206 204 202 203 207 210 210 207 202 197 193 196 203 219 234 250 262 270 282 290 291 293 297 301 302 303 304 307 308 308 304 299 293 286 275 268 265
198 198 200 201 201 205 208 207 206 210 211 210 212 212 211 208 210 217 230 246 258 266 272 281 288 293 294 297 299 300 301 303 304 305 305 304 301 296 293 289 283 273 267
208 205 201 198 200 205 209 210 212 212 212 212 214 214 214 223 233 242 252 262 274 283 285 288 293 295 295 296 299 302 303 302 302 301 300 299 297 297 292 288 287 281 270
211 211 210 198 199 205 208 213 209 211 216 216 218 222 227 237 249 260 270 275 282 290 294 296 296 297 299 302 304 303 302 303 303 302 302 302 300 296 295 290 277 270 268
214 211 210 202 201 208 208 207 206 214 223 223 224 228 237 249 261 269 276 282 289 295 300 302 302 302 302 304 306 307 307 306 305 303 303 303 302 298 291 284 276 262 252
212 217 215 213 211 208 209 209 215 221 223 225 228 229 240 251 262 272 279 284 294 302 305 305 304 305 306 308 310 311 310 308 308 308 308 308 306 301 295 287 283 279 265
218 219 224 222 220 219 215 217 222 229 228 230 233 236 245 255 263 272 279 291 300 303 305 308 310 311 311 313 315 312 309 310 314 314 318 318 311 304 299 295 292 289 284
230 230 227 227 225 223 223 224 230 230 230 236 241 249 254 256 263 268 285 296 301 308 313 314 315 318 319 319 319 317 320 323 317 332 336 342 332 327 321 314 310 306 301
244 246 238 231 231 228 228 229 235 240 237 244 248 252 253 255 262 275 287 297 308 317 316 315 318 321 320 324 323 320 321 322 315 3 354 337 329 320 317 322 321 318 316
244 247 237 232 233 232 231 237 238 240 244 247 246 245 251 260 271 286 298 306 309 314 311 315 320 323 327 330 327 324 325 322 313 250 353 336 336 332 325 327 324 321 322
243 241 228 228 232 235 233 237 238 244 237 235 238 242 249 271 284 293 302 305 306 307 314 319 326 330 333 336 338 335 343 337 309 253 298 314 298 326 331 328 337 326 316
231 221 220 223 230 233 229 230 230 228 231 239 245 260 269 271 285 299 301 301 309 315 318 325 331 336 336 343 346 349 342 343 287 308 296 320 308 328 329 322 327 326 321
204 197 200 216 223 219 217 222 219 230 246 242 258 258 263 289 295 301 308 312 313 316 322 327 329 332 334 340 341 341 333 317 323 324 320 326 306 313 324 317 323 324 321
178 179 195 210 216 219 221 224 239 259 253 250 251 268 283 293 304 311 311 312 315 318 319 321 324 330 331 338 334 323 308 304 314 313 306 311 321 308 315 314 323 325 327
180 187 191 199 207 214 225 242 255 266 253 251 266 277 292 304 314 316 314 316 315 315 316 322 325 330 328 323 324 322 311 308 306 299 302 310 308 313 321 316 320 326 330
181 184 194 208 213 216 229 239 234 235 246 269 286 296 309 312 314 317 317 319 318 321 323 326 328 329 321 312 308 302 303 305 305 303 301 303 305 315 311 315 318 325 331